{"data":{"norad_id":66951,"epoch":"2026-05-24T23:58:52.552704Z","epoch_age_seconds":85551,"freshness":"FRESH","line1":"1 66951U 25286AC  26144.99921936  .00022995  00000+0  68915-3 0  9993","line2":"2 66951  53.1619   3.7427 0001067  81.7999 278.3125 15.34421772 27108","mean_motion":15.34421772,"eccentricity":0.0001067,"inclination_deg":53.1619,"raan_deg":3.7427,"arg_perigee_deg":81.7999,"mean_anomaly_deg":278.3125,"bstar":0.00068915,"rev_number":2710,"period_min":93.846426470023,"perigee_km":461.90861925097,"apogee_km":463.36844074907,"semimajor_km":6840.77553,"source":"CELESTRAK","updated_at":"2026-05-25T13:38:21.391560Z"}}